Location: Tr�vern
(48.0333°N, 4.6000°W)
Time: 18:35:42
(UTC+00:00)

Meteor 1-11 Rocket - Pass Details

Date: 14 July 2020
Orbit: 832 x 915 km, 81.2° (Epoch: 12 August)

Event Time Altitude Azimuth Distance (km) Brightness Sun altitude
Exits shadow 02:04:16 16° 160° (SSE) 2,039 5.3 -16.8°
Maximum altitude 02:08:21 45° 93° (E) 1,121 4.5 -16.5°
Drops below altitude 10° 02:13:36 10° 23° (NNE) 2,454 7.5 -16.2°
Sets 02:16:06 0° 17° (NNE) 3,396 8.6 -16.0°
